Погода в Корлики

Погода в Корлики : погода сейчас, прогноз погоды и архив. Всё, что Вы хотите узнать о погоде в Корлики!

Поиск расширенной информации на нашем сайте:

Другие новости

Новости СМИ2

Главная страница сайта

Новости сайта

03.07.2017

Напоминаем, что на нашем специализированном сайте Метеоцентр.Азия вы можете получить высокодетализированные автоматические прогнозы погоды по пунктам России, СНГ и мира в авиационном формате (включающие направление и скорость ветра, видимость, явления погоды, количество и форму облачности, нижнюю и верхнюю границу облачности).


Погода в Корлики - сегодня

Время (UTC), дата Ветер
(°,м/с) 
Видим.   Явления Облачность Т
(°С)
Тd
(°С)
f(%) Тe
(°С)
Pmin
(гПа)
dP
(гПа)
Po
(мм)
O2
(г/м3)
Тmin Tmax R s Состояние
почвы
03 19.10.17 150 (ЮВ) 10 км    10/10 300 м 
[St]
-5.9 -6.8 93 -7  1014.2  -0.3  753  311  -8.1         
06 19.10.17 150 (ЮВ) н/о    н/о 
-3.6 -4.4 94 -5  1012.3  -1  753  308           
09 19.10.17 150 (ЮВ) 4000 м  слаб. снег  10/10 600 м 
[Sc]
-0.8 -3 85 -2  1012  -1.1  752  304           
12 19.10.17 130 (ЮВ) н/о    н/о 
-1.1 -4.3 79 -4  1010.9  -0.2  752  305           
15 19.10.17 150 (ЮВ) 4000 м  слаб. снег  10/10 600 м 
[Ns]
-0.8 -2.9 86 -2  1011.6  -0.2  752  304    -0.4  0.0     
18 19.10.17 120 (ЮВ) 10 км  в посл. час снег  10/10 600 м 
[Sc]
-1.3 -2 95 -2  1010.4  -1.2  751  304           
21 19.10.17 140 (ЮВ) 10 км    10/10 600 м 
[Sc]
-0 -0.8 94 -1  1008.9  -1.5  750  302           
00 20.10.17 130 (ЮВ) 4000 м  слаб. ливневой дождь  10/10 600 м кучево-дожд. 
[Cb cap]
+0.6 -0.1 95 1007.7  -1.2  749  301           
03 20.10.17 150 (ЮВ) 10 км  {ливн. осадки}  10/10 300 м 
[St]
+1.2 +0.5 95 1007.7  749  300  -1.5       
06 20.10.17 110 (В) н/о    н/о 
+1.9 +1.2 95 +3  1005.9  -0.8  748  299           
09 20.10.17 120 (ЮВ) 10 км    10/10 300 м 
[St]
+2.6 +1.7 94 +2  1005.3  -1.4  747  298           
12 20.10.17 090 (В) н/о    н/о 
+3.1 +2 92 +3  1002.9  -1.5  746  297           
15 20.10.17 090 (В) 4000 м  слаб. морось  10/10 300 м 
[St]
+2.8 +1.9 94 +1  1001  -2.7  744  296    +3.2  0.0     
18 20.10.17 100 (В) 4000 м  слаб. морось  10/10 300 м 
[St]
+3.2 +2.5 95 +3  997.4  -2.7  742  295           
21 20.10.17 100 (В) 4000 м  слаб. морось  10/10 300 м 
[St]
+3.2 +2.5 95 +3  995.8  -2.4  740  294           
00 21.10.17 120 (ЮВ) 4000 м  слаб. дождь{морось}  10/10 300 м 
[Sc|Ns]
+2.6 +2 96 +3  994.2  -1.6  739  295           
03 21.10.17 200 (Ю) 4000 м  слаб. морось{дождь}  10/10 300 м 
[St]
+1.7 +0.9 94 995.2  0.8  739  296  +1.6       
06 21.10.17 180 (Ю) н/о    н/о 
+2.2 +0.9 91 +2  995.1  0.9  740  296  +1.6         
09 21.10.17 180 (Ю) 4000 м  слаб. дождь  10/10 600 м 
[Sc]
+2.3 +1.1 92 +2  996.5  0.4  740  296           
12 21.10.17 180 (Ю) н/о    н/о 
+1.7 +0.5 92 +1  996.1  0.6  741  297           
15 21.10.17 180 (Ю) 10 км  в посл. час дождь  10/10 600 м 
[Sc]
+0.6 -0.2 94 997.3  0.2  741  298    +2.6     
18 21.10.17 170 (Ю) 4000 м  слаб. снег  10/10 600 м 
[Frnb|Ns]
+0 -1 93 -2  997.5  0.2  741  299           
21 21.10.17 170 (Ю) 4000 м  слаб. снег  10/10 600 м 
[Frnb|Ns]
-0.3 -1 95 -1  997.9  0.4  741  299           
00 22.10.17 190 (Ю) 4000 м  слаб. снег  10/10 600 м 
[Frnb|Ns]
-0.4 -1 96 -1  998.2  0.3  742  299           
03 22.10.17 210 (ЮЗ) 10 км  слаб. снег  10/10 600 м 
[Frnb|Ns]
-0.4 -1.3 94 -2  999.4  1.1  742  300  -0.5    0.7  равномерный
сухой снег
100% 
Время (UTC), дата Ветер
(°,м/с) 
Видим.   Явления Облачность Т
(°С)
Тd
(°С)
f(%) Тe
(°С)
Pmin
(гПа)
dP
(гПа)
Po
(мм)
O2
(г/м3)
Тmin Tmax R s Состояние
почвы

Для получения пояснительной информации подведите курсор к названию столбца.

ПОГОДА в Корлики - архив

Всё, что Вы хотите узнать о погоде в Корлики - удобно и подробно!

Выберите нужную дату (начиная с 1 января 2015* года) и нажмите кнопку "Найти".
Будут отображены архивные сводки погоды по пункту Корлики, начиная с указанной даты.


Отображать данные в формате CSV (для использования в таблицах Excel)


Внимание! Наш архив погоды предназначен исключительно для личного некоммерческого использования в познавательных целях. Если Вам необходимы официальные справки о состоянии погоды (для производственных, юридических, коммерческих и т.п. целей), обращайтесь в органы Росгидромета.

*Примечание: данная дата относится к архиву по метеостанциям СССР (Россия, СНГ, Балтия).
Архив по метеостанциям Зарубежной Европы и Азии (кроме Китая) хранится 10 дней, по другим регионам земного шара (Китай, Африка, Америка, Австралия, Океания) - 1 день.

Корлики - район местоположения метеостанции


Название, широта, долгота, высота метеостанции:
Корлики 61.5°ш. 82.4°д. 80 м над ур. моря [Российская Федерация]

Дополнительная информация

В oтличие oт бoльшинства пoгoдных сайтoв мы публикуем пoдрoбную метеoинфoрмацию в детальнoм прoфессиoнальнoм фoрмате.

Характеристики температуры и влажнoсти вoздуха измеряются на высoте 2 м в тени вдали oт зданий и деревьев.
Скoрoсть ветра измеряется на высoте 10 м (на урoвне рoста челoвека скoрoсть ветра ниже в 1.5-2 раза). Если метеoстанция нахoдится в гoрoде или в лесу, тo скoрoсть ветра занижена на 2-4 м/с пo сравнению с oткрытым местoм. Скoрoсть ветра над акватoриями крупных рек и oзёр, а также на вершинах хoлмoв на 2-5 м/с выше, чем в oбычных услoвиях.
Атмoсфернoе давление в разных тoчках местнoсти мoжет значительнo oтличаться oт давления на метеoстанции, в зависимoсти oт услoвий рельефа (при пoдъёме на 10 м давление пoнижается примернo на 1 мм рт.ст.).